C/2017 S6 ( Catalina )

Japanese version
Home page
Updated on November 23, 2017

---------------------------------------------------------------------

* Profile

Discovery Date September 30, 2017
Magnitude 17.9 mag
Discoverer G. J. Leonard (Catalina Sky Survey)

* Pictures

* Orbital Elements

Epoch 2018 Feb. 11.0 TT = JDT 2458160.5
T 2018 Feb. 26.86509 TT                                 MPCW
q   1.5433269            (2000.0)            P               Q
z  -0.0016201      Peri.  134.64878     +0.93844862     -0.00717954
 +/-0.0003394      Node   130.87383     -0.23679981     -0.74124597
e   1.0025003      Incl.  152.82483     +0.25147573     -0.67119510
From 89 observations 2017 Sept. 30-Nov. 2, mean residual 0".6.

* Finding Charts

* Magnitudes Graph

        m1 = 12.5 + 5 log d + 10.0 log r

---------------------------------------------------------------------

The orbital elements are published on M.P.E.C. 2017-V13.
The charts are made with StellaNavigator Ver.10 (AstroArts).
The magnitudes graphs are made with Comet for Windows.

---------------------------------------------------------------------

Copyright(C) Seiichi Yoshida (comet@aerith.net). All rights reserved.